{"data":{"norad_id":66846,"intl_designator":"2025-280AB","name":"STARLINK-36055","alt_names":[],"object_type":"PAYLOAD","status":"ACTIVE","operator":null,"country":"US","launch_date":"2025-12-02","launch_site_code":"AFWTR","launch_vehicle":null,"mission":null,"orbit_class":"UNKNOWN","rcs_meters":null,"size_class":null,"mass_kg":null,"dimensions":null,"purposes":["comms"],"wikipedia_slug":null,"has_3d_model":false,"image_url":null,"decayed_at":null,"tle_current":{"epoch":"2026-09-20T07:10:38.186112Z","epoch_age_seconds":101431,"freshness":"FRESH","line1":"1 66846U 25280AB  26263.29905308  .00003998  00000+0  34253-3 0  9990","line2":"2 66846  70.0004 203.8897 0003094 264.8311  95.2495 14.98343279 45239","mean_motion":14.98343279,"eccentricity":0.0003094,"inclination_deg":70.0004,"raan_deg":203.8897,"arg_perigee_deg":264.8311,"mean_anomaly_deg":95.2495,"bstar":0.00034253,"rev_number":4523,"period_min":96.106147381731,"perigee_km":569.86445006029,"apogee_km":574.16520401086,"semimajor_km":6950.1518270356,"source":"CELESTRAK","updated_at":"2026-09-21T09:00:36.024927Z"}}}